Time,TemperatureF,DewpointF,PressureIn,WindDirection,WindDirectionDegrees,WindSpeedMPH,WindSpeedGustMPH,Humidity,HourlyPrecipIn,Conditions,Clouds,dailyrainin,SoftwareType,DateUTC
2013-06-05 00:00:00,72.6,28.5,29.92,WSW,242,0.0,0.0,19,0.00,,---,0.00,VWS V12.07,2013-06-05 07:00:00,
2013-06-05 00:03:00,72.5,28.3,29.92,WSW,242,0.0,0.0,19,0.00,,---,0.00,VWS V12.07,2013-06-05 07:03:00,
2013-06-05 00:08:00,72.3,28.1,29.92,WSW,242,0.0,0.0,19,0.00,,---,0.00,VWS V12.07,2013-06-05 07:08:00,
2013-06-05 00:13:00,72.2,27.9,29.92,WSW,242,0.0,0.0,19,0.00,,---,0.00,VWS V12.07,2013-06-05 07:13:00,
2013-06-05 00:18:00,72.2,27.9,29.92,WSW,242,0.0,0.0,19,0.00,,---,0.00,VWS V12.07,2013-06-05 07:18:00,
2013-06-05 00:23:00,71.8,28.1,29.92,WSW,242,0.0,0.0,20,0.00,,---,0.00,VWS V12.07,2013-06-05 07:23:00,
2013-06-05 00:28:00,71.7,28.8,29.92,WSW,242,0.0,0.0,20,0.00,,---,0.00,VWS V12.07,2013-06-05 07:28:00,
2013-06-05 00:30:00,71.7,28.6,29.92,WSW,242,0.0,0.0,20,0.00,,---,0.00,VWS V12.07,2013-06-05 07:30:00,
2013-06-05 00:33:00,71.2,29.0,29.92,WSW,242,0.0,0.0,21,0.00,,---,0.00,VWS V12.07,2013-06-05 07:33:00,
2013-06-05 00:38:00,70.5,29.0,29.92,WSW,242,0.0,0.0,21,0.00,,---,0.00,VWS V12.07,2013-06-05 07:38:00,
2013-06-05 00:43:00,69.8,29.4,29.92,WSW,242,0.0,0.0,22,0.00,,---,0.00,VWS V12.07,2013-06-05 07:43:00,
2013-06-05 00:48:00,69.1,28.7,29.92,WSW,242,0.0,0.0,22,0.00,,---,0.00,VWS V12.07,2013-06-05 07:48:00,
2013-06-05 00:53:00,68.9,28.6,29.92,WSW,242,0.0,0.0,22,0.00,,---,0.00,VWS V12.07,2013-06-05 07:53:00,
2013-06-05 00:58:00,68.8,28.5,29.92,WSW,242,0.0,0.0,22,0.00,,---,0.00,VWS V12.07,2013-06-05 07:58:00,
2013-06-05 01:00:00,68.6,28.5,29.92,WSW,242,0.0,0.0,22,0.00,,---,0.00,VWS V12.07,2013-06-05 08:00:00,
2013-06-05 01:03:00,68.8,28.4,29.92,WSW,242,0.0,0.0,22,0.00,,---,0.00,VWS V12.07,2013-06-05 08:03:00,
2013-06-05 01:08:00,68.7,28.2,29.92,WSW,242,0.0,0.0,22,0.00,,---,0.00,VWS V12.07,2013-06-05 08:08:00,
2013-06-05 01:13:00,68.9,28.9,29.92,WSW,242,0.0,0.0,22,0.00,,---,0.00,VWS V12.07,2013-06-05 08:13:00,
2013-06-05 01:18:00,68.6,28.6,29.92,WSW,242,0.0,0.0,22,0.00,,---,0.00,VWS V12.07,2013-06-05 08:18:00,
2013-06-05 01:23:00,68.2,28.8,29.92,WSW,242,0.0,0.0,23,0.00,,---,0.00,VWS V12.07,2013-06-05 08:23:00,
2013-06-05 01:28:00,67.9,29.0,29.92,WSW,242,0.0,0.0,23,0.00,,---,0.00,VWS V12.07,2013-06-05 08:28:00,
2013-06-05 01:30:00,68.0,29.1,29.92,WSW,242,0.0,0.0,23,0.00,,---,0.00,VWS V12.07,2013-06-05 08:30:00,
2013-06-05 01:33:00,67.8,29.2,29.92,WSW,242,0.0,0.0,24,0.00,,---,0.00,VWS V12.07,2013-06-05 08:33:00,
2013-06-05 01:38:00,67.4,29.3,29.92,WSW,242,0.0,0.0,24,0.00,,---,0.00,VWS V12.07,2013-06-05 08:38:00,
2013-06-05 01:43:00,67.3,29.3,29.92,WSW,242,0.0,0.0,24,0.00,,---,0.00,VWS V12.07,2013-06-05 08:43:00,
2013-06-05 01:48:00,67.0,29.5,29.92,WSW,242,0.0,0.0,24,0.00,,---,0.00,VWS V12.07,2013-06-05 08:48:00,
2013-06-05 01:53:00,66.9,29.5,29.92,WSW,242,0.0,0.0,24,0.00,,---,0.00,VWS V12.07,2013-06-05 08:53:00,
2013-06-05 01:58:00,66.7,29.7,29.92,WSW,242,0.0,0.0,25,0.00,,---,0.00,VWS V12.07,2013-06-05 08:58:00,
2013-06-05 02:00:00,66.8,29.8,29.92,WSW,242,0.0,0.0,25,0.00,,---,0.00,VWS V12.07,2013-06-05 09:00:00,
2013-06-05 02:03:00,66.6,29.6,29.92,WSW,242,0.0,0.0,25,0.00,,---,0.00,VWS V12.07,2013-06-05 09:03:00,
2013-06-05 02:08:00,66.5,29.3,29.92,WSW,242,0.0,0.0,25,0.00,,---,0.00,VWS V12.07,2013-06-05 09:08:00,
2013-06-05 02:13:00,66.5,29.2,29.92,WSW,242,0.0,0.0,25,0.00,,---,0.00,VWS V12.07,2013-06-05 09:13:00,
2013-06-05 02:18:00,66.8,29.4,29.92,WSW,242,0.0,0.0,24,0.00,,---,0.00,VWS V12.07,2013-06-05 09:18:00,
2013-06-05 02:23:00,66.8,29.5,29.92,WSW,242,0.0,0.0,25,0.00,,---,0.00,VWS V12.07,2013-06-05 09:23:00,
2013-06-05 02:28:00,66.8,29.7,29.92,WSW,242,0.0,0.0,25,0.00,,---,0.00,VWS V12.07,2013-06-05 09:28:00,
2013-06-05 02:30:00,66.9,29.7,29.92,WSW,242,0.0,0.0,25,0.00,,---,0.00,VWS V12.07,2013-06-05 09:30:00,
2013-06-05 02:33:00,66.7,29.6,29.92,WSW,242,0.0,0.0,25,0.00,,---,0.00,VWS V12.07,2013-06-05 09:33:00,
2013-06-05 02:38:00,66.7,29.3,29.92,WSW,242,0.0,0.0,24,0.00,,---,0.00,VWS V12.07,2013-06-05 09:38:00,
2013-06-05 02:43:00,66.7,29.5,29.92,WSW,242,0.0,0.0,25,0.00,,---,0.00,VWS V12.07,2013-06-05 09:43:00,
2013-06-05 02:48:00,66.4,29.4,29.92,WSW,242,0.0,0.0,25,0.00,,---,0.00,VWS V12.07,2013-06-05 09:48:00,
2013-06-05 02:53:00,66.1,29.3,29.92,WSW,242,0.0,0.0,25,0.00,,---,0.00,VWS V12.07,2013-06-05 09:53:00,
2013-06-05 02:58:00,65.8,29.2,29.92,WSW,242,0.0,0.0,25,0.00,,---,0.00,VWS V12.07,2013-06-05 09:58:00,
2013-06-05 03:00:00,65.8,29.1,29.92,WSW,242,0.0,0.0,25,0.00,,---,0.00,VWS V12.07,2013-06-05 10:00:00,
2013-06-05 03:03:00,65.4,29.1,29.92,WSW,242,0.0,0.0,25,0.00,,---,0.00,VWS V12.07,2013-06-05 10:03:00,
2013-06-05 03:08:00,64.8,29.4,29.92,WSW,242,0.0,0.0,26,0.00,,---,0.00,VWS V12.07,2013-06-05 10:08:00,
2013-06-05 03:13:00,64.1,28.9,29.92,WSW,242,0.0,0.0,26,0.00,,---,0.00,VWS V12.07,2013-06-05 10:13:00,
2013-06-05 03:18:00,63.6,29.0,29.92,WSW,242,0.0,0.0,27,0.00,,---,0.00,VWS V12.07,2013-06-05 10:18:00,
2013-06-05 03:23:00,63.4,29.4,29.93,WSW,242,0.0,0.0,28,0.00,,---,0.00,VWS V12.07,2013-06-05 10:23:00,
2013-06-05 03:28:00,63.3,29.7,29.92,WSW,242,0.0,0.0,28,0.00,,---,0.00,VWS V12.07,2013-06-05 10:28:00,
2013-06-05 03:30:00,63.3,29.7,29.92,WSW,242,0.0,0.0,28,0.00,,---,0.00,VWS V12.07,2013-06-05 10:30:00,
2013-06-05 03:33:00,63.2,29.5,29.92,WSW,242,0.0,0.0,28,0.00,,---,0.00,VWS V12.07,2013-06-05 10:33:00,
2013-06-05 03:38:00,63.4,29.2,29.92,WSW,242,0.0,0.0,27,0.00,,---,0.00,VWS V12.07,2013-06-05 10:38:00,
2013-06-05 03:43:00,63.8,29.1,29.92,WSW,242,0.0,0.0,27,0.00,,---,0.00,VWS V12.07,2013-06-05 10:43:00,
2013-06-05 03:48:00,64.5,29.1,29.92,WSW,242,0.0,0.0,26,0.00,,---,0.00,VWS V12.07,2013-06-05 10:48:00,
2013-06-05 03:53:00,65.0,29.2,29.93,WSW,242,0.0,0.0,26,0.00,,---,0.00,VWS V12.07,2013-06-05 10:53:00,
2013-06-05 03:58:00,65.1,29.2,29.93,WSW,242,0.0,0.0,26,0.00,,---,0.00,VWS V12.07,2013-06-05 10:58:00,
2013-06-05 04:00:00,65.1,29.1,29.93,WSW,242,0.0,0.0,26,0.00,,---,0.00,VWS V12.07,2013-06-05 11:00:00,
2013-06-05 04:03:00,65.0,28.9,29.93,WSW,242,0.0,0.0,26,0.00,,---,0.00,VWS V12.07,2013-06-05 11:03:00,
2013-06-05 04:08:00,64.8,29.0,29.93,WSW,242,0.0,0.0,26,0.00,,---,0.00,VWS V12.07,2013-06-05 11:08:00,
2013-06-05 04:14:00,64.6,29.0,29.93,WSW,242,0.0,0.0,26,0.00,,---,0.00,VWS V12.07,2013-06-05 11:14:00,
2013-06-05 04:19:00,64.4,29.0,29.93,WSW,242,0.0,0.0,26,0.00,,---,0.00,VWS V12.07,2013-06-05 11:19:00,
2013-06-05 04:24:00,64.3,29.0,29.93,WSW,242,0.0,0.0,26,0.00,,---,0.00,VWS V12.07,2013-06-05 11:24:00,
2013-06-05 04:29:00,64.2,29.0,29.93,WSW,242,0.0,0.0,26,0.00,,---,0.00,VWS V12.07,2013-06-05 11:29:00,
2013-06-05 04:30:00,64.2,28.9,29.93,WSW,242,0.0,0.0,26,0.00,,---,0.00,VWS V12.07,2013-06-05 11:30:00,
2013-06-05 04:34:00,64.1,28.8,29.93,WSW,242,0.0,0.0,26,0.00,,---,0.00,VWS V12.07,2013-06-05 11:34:00,
2013-06-05 04:39:00,64.0,29.0,29.93,WSW,242,0.0,0.0,27,0.00,,---,0.00,VWS V12.07,2013-06-05 11:39:00,
2013-06-05 04:44:00,63.8,29.0,29.93,WSW,242,0.0,0.0,27,0.00,,---,0.00,VWS V12.07,2013-06-05 11:44:00,
2013-06-05 04:49:00,63.6,28.9,29.93,WSW,242,0.0,0.0,27,0.00,,---,0.00,VWS V12.07,2013-06-05 11:49:00,
2013-06-05 04:54:00,63.5,29.2,29.93,WSW,242,0.0,0.0,27,0.00,,---,0.00,VWS V12.07,2013-06-05 11:54:00,
2013-06-05 04:59:00,63.4,29.6,29.94,WSW,242,0.0,0.0,28,0.00,,---,0.00,VWS V12.07,2013-06-05 11:59:00,
2013-06-05 05:00:00,63.3,29.3,29.94,WSW,242,0.0,0.0,28,0.00,,---,0.00,VWS V12.07,2013-06-05 12:00:00,
2013-06-05 05:30:00,61.1,29.7,29.94,WSW,242,0.0,0.0,30,0.00,,---,0.00,VWS V12.07,2013-06-05 12:30:00,
2013-06-05 06:00:00,60.9,30.8,29.95,WSW,242,0.0,0.0,32,0.00,,---,0.00,VWS V12.07,2013-06-05 13:00:00,
2013-06-05 06:01:00,61.2,30.8,29.95,WSW,242,0.0,0.0,32,0.00,,---,0.00,VWS V12.07,2013-06-05 13:01:00,
2013-06-05 06:06:00,61.5,31.2,29.95,WSW,242,0.0,0.0,32,0.00,,---,0.00,VWS V12.07,2013-06-05 13:06:00,
2013-06-05 06:11:00,62.1,31.9,29.95,WSW,242,0.0,0.0,32,0.00,,---,0.00,VWS V12.07,2013-06-05 13:11:00,
2013-06-05 06:16:00,62.3,32.0,29.96,WSW,242,0.0,0.0,32,0.00,,---,0.00,VWS V12.07,2013-06-05 13:16:00,
2013-06-05 06:22:00,62.9,32.5,29.95,WSW,242,0.0,0.0,32,0.00,,---,0.00,VWS V12.07,2013-06-05 13:22:00,
2013-06-05 06:27:00,63.6,31.4,29.95,WSW,242,0.0,0.0,30,0.00,,---,0.00,VWS V12.07,2013-06-05 13:27:00,
2013-06-05 06:30:00,63.8,31.3,29.95,WSW,242,0.0,0.0,29,0.00,,---,0.00,VWS V12.07,2013-06-05 13:30:00,
2013-06-05 06:32:00,64.9,30.7,29.95,WSW,242,0.0,0.0,28,0.00,,---,0.00,VWS V12.07,2013-06-05 13:32:00,
2013-06-05 06:37:00,66.0,30.9,29.95,WSW,242,0.0,0.0,27,0.00,,---,0.00,VWS V12.07,2013-06-05 13:37:00,
2013-06-05 06:42:00,66.6,30.7,29.95,WSW,242,0.0,0.0,26,0.00,,---,0.00,VWS V12.07,2013-06-05 13:42:00,
2013-06-05 06:47:00,67.3,30.6,29.95,WSW,242,0.0,2.4,25,0.00,,---,0.00,VWS V12.07,2013-06-05 13:47:00,
2013-06-05 07:00:00,68.3,30.0,29.96,NNW,332,0.0,4.7,24,0.00,,---,0.00,VWS V12.07,2013-06-05 14:00:00,
2013-06-05 07:30:00,70.6,30.3,29.96,NNW,343,0.0,6.1,22,0.00,,---,0.00,VWS V12.07,2013-06-05 14:30:00,
2013-06-05 07:47:00,73.2,30.6,29.96,NNE,25,0.0,6.1,21,0.00,,---,0.00,VWS V12.07,2013-06-05 14:47:00,
2013-06-05 07:52:00,73.6,30.6,29.96,NNE,25,0.0,6.1,20,0.00,,---,0.00,VWS V12.07,2013-06-05 14:52:00,
2013-06-05 07:57:00,74.3,30.8,29.96,North,359,0.0,6.1,20,0.00,,---,0.00,VWS V12.07,2013-06-05 14:57:00,
2013-06-05 08:00:00,74.3,30.8,29.96,North,359,0.0,5.7,20,0.00,,---,0.00,VWS V12.07,2013-06-05 15:00:00,
2013-06-05 08:02:00,75.1,32.1,29.96,NE,34,0.0,6.1,21,0.00,,---,0.00,VWS V12.07,2013-06-05 15:02:00,
2013-06-05 08:07:00,76.0,32.4,29.96,ESE,115,0.0,6.1,20,0.00,,---,0.00,VWS V12.07,2013-06-05 15:07:00,
2013-06-05 08:13:00,76.6,33.3,29.96,NE,41,0.0,6.1,21,0.00,,---,0.00,VWS V12.07,2013-06-05 15:13:00,
2013-06-05 08:18:00,77.0,34.0,29.97,NE,41,0.0,6.1,21,0.00,,---,0.00,VWS V12.07,2013-06-05 15:18:00,
2013-06-05 08:23:00,77.2,32.9,29.97,NE,41,0.0,6.1,20,0.00,,---,0.00,VWS V12.07,2013-06-05 15:23:00,
2013-06-05 08:28:00,77.7,32.8,29.97,NW,322,0.0,6.1,20,0.00,,---,0.00,VWS V12.07,2013-06-05 15:28:00,
2013-06-05 08:30:00,77.7,32.6,29.97,NW,322,0.0,6.1,19,0.00,,---,0.00,VWS V12.07,2013-06-05 15:30:00,
2013-06-05 08:33:00,78.2,32.1,29.97,NW,322,0.0,6.1,19,0.00,,---,0.00,VWS V12.07,2013-06-05 15:33:00,
2013-06-05 08:38:00,78.7,32.3,29.97,NW,322,0.0,6.1,18,0.00,,---,0.00,VWS V12.07,2013-06-05 15:38:00,
2013-06-05 08:43:00,79.2,31.5,29.97,NW,322,0.0,6.1,18,0.00,,---,0.00,VWS V12.07,2013-06-05 15:43:00,
2013-06-05 08:48:00,80.0,31.3,29.97,NE,48,0.0,6.1,17,0.00,,---,0.00,VWS V12.07,2013-06-05 15:48:00,
2013-06-05 08:53:00,80.4,30.9,29.97,NNE,31,0.0,6.1,16,0.00,,---,0.00,VWS V12.07,2013-06-05 15:53:00,
2013-06-05 08:58:00,80.6,31.4,29.97,NNE,31,0.0,6.1,17,0.00,,---,0.00,VWS V12.07,2013-06-05 15:58:00,
2013-06-05 09:00:00,80.6,31.4,29.97,NNE,31,0.0,3.4,17,0.00,,---,0.00,VWS V12.07,2013-06-05 16:00:00,
2013-06-05 09:03:00,81.4,31.2,29.97,NNE,31,0.0,6.1,16,0.00,,---,0.00,VWS V12.07,2013-06-05 16:03:00,
2013-06-05 09:08:00,81.9,30.4,29.97,NNE,31,0.0,6.1,15,0.00,,---,0.00,VWS V12.07,2013-06-05 16:08:00,
2013-06-05 09:13:00,82.4,30.6,29.97,NNE,31,0.0,6.1,15,0.00,,---,0.00,VWS V12.07,2013-06-05 16:13:00,
2013-06-05 09:30:00,83.3,29.4,29.97,NNE,31,0.0,0.0,14,0.00,,---,0.00,VWS V12.07,2013-06-05 16:30:00,
2013-06-05 10:00:00,84.6,28.0,29.96,NNE,31,0.0,0.0,13,0.00,,---,0.00,VWS V12.07,2013-06-05 17:00:00,
2013-06-05 10:15:00,87.3,26.9,29.96,NNE,31,0.0,6.1,11,0.00,,---,0.00,VWS V12.07,2013-06-05 17:15:00,
2013-06-05 10:20:00,87.5,26.6,29.96,NNE,31,0.0,6.1,11,0.00,,---,0.00,VWS V12.07,2013-06-05 17:20:00,
2013-06-05 10:25:00,87.8,25.9,29.96,SSE,166,0.0,6.1,11,0.00,,---,0.00,VWS V12.07,2013-06-05 17:25:00,
2013-06-05 10:30:00,88.4,25.9,29.95,SSE,166,0.0,6.1,10,0.00,,---,0.00,VWS V12.07,2013-06-05 17:30:00,
2013-06-05 10:35:00,88.7,26.1,29.95,SSE,166,0.0,6.1,10,0.00,,---,0.00,VWS V12.07,2013-06-05 17:35:00,
2013-06-05 10:40:00,88.6,27.2,29.95,ENE,58,0.0,6.1,11,0.00,,---,0.00,VWS V12.07,2013-06-05 17:40:00,
2013-06-05 10:45:00,89.4,26.2,29.95,ENE,65,0.0,6.1,10,0.00,,---,0.00,VWS V12.07,2013-06-05 17:45:00,
2013-06-05 10:50:00,89.9,26.4,29.95,NE,55,0.0,6.1,10,0.00,,---,0.00,VWS V12.07,2013-06-05 17:50:00,
2013-06-05 10:55:00,90.1,25.3,29.95,NE,55,0.0,6.1,10,0.00,,---,0.00,VWS V12.07,2013-06-05 17:55:00,
2013-06-05 11:00:00,90.6,26.1,29.95,ENE,77,0.0,6.5,10,0.00,,---,0.00,VWS V12.07,2013-06-05 18:00:00,
2013-06-05 11:05:00,90.8,24.3,29.95,ENE,60,0.0,6.5,9,0.00,,---,0.00,VWS V12.07,2013-06-05 18:05:00,
2013-06-05 11:10:00,90.9,24.3,29.95,NE,53,0.0,6.5,9,0.00,,---,0.00,VWS V12.07,2013-06-05 18:10:00,
2013-06-05 11:18:00,91.7,25.5,29.95,NE,53,0.0,6.5,9,0.00,,---,0.00,VWS V12.07,2013-06-05 18:18:00,
2013-06-05 11:23:00,92.2,23.7,29.94,SE,127,0.0,6.5,8,0.00,,---,0.00,VWS V12.07,2013-06-05 18:23:00,
2013-06-05 11:28:00,92.2,23.7,29.94,SSE,150,0.0,6.5,8,0.00,,---,0.00,VWS V12.07,2013-06-05 18:28:00,
2013-06-05 11:30:00,92.1,23.6,29.94,SSE,150,0.0,6.5,8,0.00,,---,0.00,VWS V12.07,2013-06-05 18:30:00,
2013-06-05 11:33:00,92.4,23.2,29.94,SSE,150,0.0,6.5,8,0.00,,---,0.00,VWS V12.07,2013-06-05 18:33:00,
2013-06-05 11:38:00,93.0,22.8,29.94,East,97,0.0,6.5,8,0.00,,---,0.00,VWS V12.07,2013-06-05 18:38:00,
2013-06-05 11:43:00,93.2,21.4,29.94,SSE,148,0.0,7.1,7,0.00,,---,0.00,VWS V12.07,2013-06-05 18:43:00,
2013-06-05 11:48:00,92.9,24.2,29.94,SSE,148,0.0,7.1,8,0.00,,---,0.00,VWS V12.07,2013-06-05 18:48:00,
2013-06-05 11:54:00,93.8,21.5,29.93,SSE,148,0.0,7.1,7,0.00,,---,0.00,VWS V12.07,2013-06-05 18:54:00,
2013-06-05 11:59:00,94.4,21.0,29.93,ENE,75,0.0,7.1,7,0.00,,---,0.00,VWS V12.07,2013-06-05 18:59:00,
2013-06-05 12:00:00,94.4,21.9,29.93,SSW,205,0.0,7.1,7,0.00,,---,0.00,VWS V12.07,2013-06-05 19:00:00,
2013-06-05 12:04:00,94.7,20.8,29.93,ENE,75,0.0,7.1,7,0.00,,---,0.00,VWS V12.07,2013-06-05 19:04:00,
2013-06-05 12:09:00,94.3,20.5,29.93,ENE,75,0.0,7.1,7,0.00,,---,0.00,VWS V12.07,2013-06-05 19:09:00,
2013-06-05 12:14:00,94.0,20.7,29.93,ENE,75,0.0,7.1,7,0.00,,---,0.00,VWS V12.07,2013-06-05 19:14:00,
2013-06-05 12:19:00,94.4,21.0,29.92,NNE,21,0.0,7.1,7,0.00,,---,0.00,VWS V12.07,2013-06-05 19:19:00,
2013-06-05 12:24:00,95.3,21.3,29.92,West,264,0.0,7.1,7,0.00,,---,0.00,VWS V12.07,2013-06-05 19:24:00,
2013-06-05 12:29:00,95.9,21.0,29.92,North,10,4.3,7.1,7,0.00,,---,0.00,VWS V12.07,2013-06-05 19:29:00,
2013-06-05 12:30:00,95.8,21.3,29.92,North,359,0.0,7.1,7,0.00,,---,0.00,VWS V12.07,2013-06-05 19:30:00,
2013-06-05 12:34:00,96.0,21.4,29.92,NW,321,0.0,7.1,7,0.00,,---,0.00,VWS V12.07,2013-06-05 19:34:00,
2013-06-05 12:39:00,96.1,21.1,29.92,West,278,3.5,7.1,7,0.00,,---,0.00,VWS V12.07,2013-06-05 19:39:00,
2013-06-05 12:44:00,95.3,20.9,29.92,WNW,285,0.0,8.5,7,0.00,,---,0.00,VWS V12.07,2013-06-05 19:44:00,
2013-06-05 12:49:00,95.4,21.3,29.92,WNW,285,0.0,8.5,7,0.00,,---,0.00,VWS V12.07,2013-06-05 19:49:00,
2013-06-05 12:54:00,96.3,21.3,29.92,NW,318,4.9,8.6,7,0.00,,---,0.00,VWS V12.07,2013-06-05 19:54:00,
2013-06-05 12:59:00,96.7,21.6,29.91,NW,307,0.0,8.6,7,0.00,,---,0.00,VWS V12.07,2013-06-05 19:59:00,
2013-06-05 13:00:00,96.7,21.6,29.91,NW,307,0.0,8.6,7,0.00,,---,0.00,VWS V12.07,2013-06-05 20:00:00,
2013-06-05 13:04:00,97.4,21.7,29.91,North,359,0.0,8.6,7,0.00,,---,0.00,VWS V12.07,2013-06-05 20:04:00,
2013-06-05 13:09:00,97.3,21.7,29.91,NE,52,1.2,8.6,7,0.00,,---,0.00,VWS V12.07,2013-06-05 20:09:00,
2013-06-05 13:14:00,97.8,21.3,29.91,NE,39,0.0,8.6,6,0.00,,---,0.00,VWS V12.07,2013-06-05 20:14:00,
2013-06-05 13:19:00,98.3,21.6,29.91,North,359,0.0,8.6,6,0.00,,---,0.00,VWS V12.07,2013-06-05 20:19:00,
2013-06-05 13:24:00,98.2,21.2,29.91,WNW,300,0.0,8.6,6,0.00,,---,0.00,VWS V12.07,2013-06-05 20:24:00,
2013-06-05 13:29:00,97.3,21.3,29.91,WNW,285,0.0,11.6,6,0.00,,---,0.00,VWS V12.07,2013-06-05 20:29:00,
2013-06-05 13:30:00,97.8,21.7,29.91,WSW,252,6.1,11.6,6,0.00,,---,0.00,VWS V12.07,2013-06-05 20:30:00,
2013-06-05 13:34:00,96.8,21.3,29.90,South,179,2.7,11.6,7,0.00,,---,0.00,VWS V12.07,2013-06-05 20:34:00,
2013-06-05 13:39:00,96.5,21.1,29.90,SSE,155,0.0,11.6,7,0.00,,---,0.00,VWS V12.07,2013-06-05 20:39:00,
2013-06-05 13:44:00,97.4,21.7,29.90,West,281,0.0,11.6,7,0.00,,---,0.00,VWS V12.07,2013-06-05 20:44:00,
2013-06-05 13:49:00,98.0,21.8,29.90,WSW,240,0.0,11.6,6,0.00,,---,0.00,VWS V12.07,2013-06-05 20:49:00,
2013-06-05 13:54:00,98.8,22.0,29.89,WSW,240,0.0,11.6,6,0.00,,---,0.00,VWS V12.07,2013-06-05 20:54:00,
2013-06-05 13:59:00,98.9,22.1,29.89,WSW,240,0.0,11.6,6,0.00,,---,0.00,VWS V12.07,2013-06-05 20:59:00,
2013-06-05 14:00:00,98.8,22.4,29.89,WSW,240,0.0,9.4,6,0.00,,---,0.00,VWS V12.07,2013-06-05 21:00:00,
2013-06-05 14:04:00,98.4,21.7,29.89,ESE,122,4.2,11.6,6,0.00,,---,0.00,VWS V12.07,2013-06-05 21:04:00,
2013-06-05 14:09:00,98.1,21.9,29.88,SSE,166,0.0,11.6,6,0.00,,---,0.00,VWS V12.07,2013-06-05 21:09:00,
2013-06-05 14:14:00,98.3,21.6,29.89,East,82,0.0,11.6,6,0.00,,---,0.00,VWS V12.07,2013-06-05 21:14:00,
2013-06-05 14:19:00,98.0,21.4,29.88,South,190,0.0,11.6,6,0.00,,---,0.00,VWS V12.07,2013-06-05 21:19:00,
2013-06-05 14:24:00,97.7,21.6,29.88,ENE,77,0.0,11.6,6,0.00,,---,0.00,VWS V12.07,2013-06-05 21:24:00,
2013-06-05 14:29:00,97.7,22.0,29.88,ESE,103,0.0,11.6,7,0.00,,---,0.00,VWS V12.07,2013-06-05 21:29:00,
2013-06-05 14:30:00,97.8,21.7,29.88,ESE,117,0.0,7.6,6,0.00,,---,0.00,VWS V12.07,2013-06-05 21:30:00,
2013-06-05 14:34:00,98.0,21.8,29.87,East,96,5.2,11.6,6,0.00,,---,0.00,VWS V12.07,2013-06-05 21:34:00,
2013-06-05 14:39:00,98.3,21.6,29.87,NNE,14,0.0,11.6,6,0.00,,---,0.00,VWS V12.07,2013-06-05 21:39:00,
2013-06-05 14:44:00,98.2,21.6,29.87,ENE,60,5.1,11.6,6,0.00,,---,0.00,VWS V12.07,2013-06-05 21:44:00,
2013-06-05 14:49:00,98.4,22.1,29.87,NE,34,0.0,11.6,6,0.00,,---,0.00,VWS V12.07,2013-06-05 21:49:00,
2013-06-05 14:54:00,99.0,22.2,29.87,ENE,70,0.0,11.8,6,0.00,,---,0.00,VWS V12.07,2013-06-05 21:54:00,
2013-06-05 14:59:00,99.3,22.0,29.87,NE,37,0.0,11.8,6,0.00,,---,0.00,VWS V12.07,2013-06-05 21:59:00,
2013-06-05 15:00:00,99.2,22.3,29.87,NE,38,0.0,11.8,6,0.00,,---,0.00,VWS V12.07,2013-06-05 22:00:00,
2013-06-05 15:04:00,99.4,22.1,29.86,West,277,0.0,11.8,6,0.00,,---,0.00,VWS V12.07,2013-06-05 22:04:00,
2013-06-05 15:09:00,99.2,21.9,29.86,North,357,0.0,11.8,6,0.00,,---,0.00,VWS V12.07,2013-06-05 22:09:00,
2013-06-05 15:14:00,99.5,21.8,29.86,North,357,0.0,11.8,6,0.00,,---,0.00,VWS V12.07,2013-06-05 22:14:00,
2013-06-05 15:19:00,99.9,22.0,29.86,North,357,0.0,11.8,6,0.00,,---,0.00,VWS V12.07,2013-06-05 22:19:00,
2013-06-05 15:24:00,100.0,22.5,29.85,East,94,3.2,11.8,6,0.00,,---,0.00,VWS V12.07,2013-06-05 22:24:00,
2013-06-05 15:29:00,100.0,22.1,29.85,NE,39,0.0,11.8,6,0.00,,---,0.00,VWS V12.07,2013-06-05 22:29:00,
2013-06-05 15:30:00,100.0,22.1,29.85,NE,39,0.0,9.2,6,0.00,,---,0.00,VWS V12.07,2013-06-05 22:30:00,
2013-06-05 15:34:00,100.0,22.1,29.85,NE,51,0.0,11.8,6,0.00,,---,0.00,VWS V12.07,2013-06-05 22:34:00,
2013-06-05 15:39:00,100.0,22.1,29.85,ENE,58,0.0,11.8,6,0.00,,---,0.00,VWS V12.07,2013-06-05 22:39:00,
2013-06-05 15:44:00,100.0,22.1,29.85,NE,35,0.0,11.8,6,0.00,,---,0.00,VWS V12.07,2013-06-05 22:44:00,
2013-06-05 15:50:00,100.2,22.3,29.84,East,90,0.0,11.8,6,0.00,,---,0.00,VWS V12.07,2013-06-05 22:50:00,
2013-06-05 15:55:00,100.0,22.1,29.84,SSE,150,2.0,11.8,6,0.00,,---,0.00,VWS V12.07,2013-06-05 22:55:00,
2013-06-05 15:59:00,99.8,22.0,29.84,WSW,240,6.8,11.8,6,0.00,,---,0.00,VWS V12.07,2013-06-05 22:59:00,
2013-06-05 16:00:00,99.9,22.0,29.84,SW,224,0.0,11.1,6,0.00,,---,0.00,VWS V12.07,2013-06-05 23:00:00,
2013-06-05 16:05:00,99.4,21.7,29.84,West,267,8.6,13.0,6,0.00,,---,0.00,VWS V12.07,2013-06-05 23:05:00,
2013-06-05 16:10:00,99.1,21.9,29.84,SSW,194,4.2,15.2,6,0.00,,---,0.00,VWS V12.07,2013-06-05 23:10:00,
2013-06-05 16:15:00,99.3,22.0,29.84,SSE,153,3.2,15.2,6,0.00,,---,0.00,VWS V12.07,2013-06-05 23:15:00,
2013-06-05 16:20:00,99.2,21.9,29.84,NW,305,0.0,15.2,6,0.00,,---,0.00,VWS V12.07,2013-06-05 23:20:00,
2013-06-05 16:25:00,99.3,22.0,29.84,South,180,4.4,15.2,6,0.00,,---,0.00,VWS V12.07,2013-06-05 23:25:00,
2013-06-05 16:30:00,99.3,22.0,29.84,SW,224,7.3,15.2,6,0.00,,---,0.00,VWS V12.07,2013-06-05 23:30:00,
2013-06-05 16:35:00,99.0,21.8,29.84,WSW,257,7.7,15.2,6,0.00,,---,0.00,VWS V12.07,2013-06-05 23:35:00,
2013-06-05 16:40:00,98.4,21.7,29.83,SE,143,3.4,15.2,6,0.00,,---,0.00,VWS V12.07,2013-06-05 23:40:00,
2013-06-05 16:45:00,98.3,21.6,29.83,SE,129,3.0,20.3,6,0.00,,---,0.00,VWS V12.07,2013-06-05 23:45:00,
2013-06-05 16:50:00,98.3,21.6,29.83,WNW,284,8.2,20.3,6,0.00,,---,0.00,VWS V12.07,2013-06-05 23:50:00,
2013-06-05 16:55:00,98.0,21.4,29.83,NW,307,0.0,20.3,6,0.00,,---,0.00,VWS V12.07,2013-06-05 23:55:00,
2013-06-05 17:00:00,98.1,21.5,29.83,South,174,0.0,20.3,6,0.00,,---,0.00,VWS V12.07,2013-06-06 00:00:00,
2013-06-05 17:05:00,98.1,21.9,29.83,South,191,6.7,20.3,6,0.00,,---,0.00,VWS V12.07,2013-06-06 00:05:00,
2013-06-05 17:10:00,97.8,21.7,29.82,South,190,8.1,20.3,6,0.00,,---,0.00,VWS V12.07,2013-06-06 00:10:00,
2013-06-05 17:15:00,97.4,21.7,29.82,SSW,193,6.9,20.3,7,0.00,,---,0.00,VWS V12.07,2013-06-06 00:15:00,
2013-06-05 17:20:00,97.3,21.7,29.82,South,187,7.8,20.3,7,0.00,,---,0.00,VWS V12.07,2013-06-06 00:20:00,
2013-06-05 17:25:00,97.3,22.0,29.82,SSW,201,0.0,20.3,7,0.00,,---,0.00,VWS V12.07,2013-06-06 00:25:00,
2013-06-05 17:30:00,97.4,22.1,29.82,SSW,193,9.2,20.3,7,0.00,,---,0.00,VWS V12.07,2013-06-06 00:30:00,
2013-06-05 17:35:00,97.4,22.1,29.83,SW,222,6.0,20.3,7,0.00,,---,0.00,VWS V12.07,2013-06-06 00:35:00,
2013-06-05 17:40:00,97.0,22.1,29.83,WSW,240,8.4,20.3,7,0.00,,---,0.00,VWS V12.07,2013-06-06 00:40:00,
2013-06-05 17:45:00,96.3,21.6,29.83,SW,224,6.4,20.3,7,0.00,,---,0.00,VWS V12.07,2013-06-06 00:45:00,
2013-06-05 17:50:00,95.5,21.4,29.83,SSW,207,3.0,20.3,7,0.00,,---,0.00,VWS V12.07,2013-06-06 00:50:00,
2013-06-05 17:55:00,94.9,21.3,29.83,SSW,212,5.4,20.3,7,0.00,,---,0.00,VWS V12.07,2013-06-06 00:55:00,
2013-06-05 18:00:00,94.2,21.8,29.83,SSW,197,3.1,20.3,7,0.00,,---,0.00,VWS V12.07,2013-06-06 01:00:00,
2013-06-05 18:05:00,93.8,22.1,29.83,WSW,252,6.6,20.3,8,0.00,,---,0.00,VWS V12.07,2013-06-06 01:05:00,
2013-06-05 18:10:00,93.3,22.4,29.83,SSW,200,4.7,20.3,8,0.00,,---,0.00,VWS V12.07,2013-06-06 01:10:00,
2013-06-05 18:15:00,93.2,22.6,29.83,South,176,5.0,20.3,8,0.00,,---,0.00,VWS V12.07,2013-06-06 01:15:00,
2013-06-05 18:20:00,93.1,22.6,29.84,SW,226,6.5,20.3,8,0.00,,---,0.00,VWS V12.07,2013-06-06 01:20:00,
2013-06-05 18:25:00,93.2,22.6,29.83,WSW,255,5.2,20.3,8,0.00,,---,0.00,VWS V12.07,2013-06-06 01:25:00,
2013-06-05 18:30:00,92.9,22.7,29.83,South,190,3.4,20.3,8,0.00,,---,0.00,VWS V12.07,2013-06-06 01:30:00,
2013-06-05 18:35:00,93.1,23.2,29.84,South,180,0.0,20.3,8,0.00,,---,0.00,VWS V12.07,2013-06-06 01:35:00,
2013-06-05 18:40:00,93.0,22.8,29.84,WSW,250,3.5,20.3,8,0.00,,---,0.00,VWS V12.07,2013-06-06 01:40:00,
2013-06-05 18:45:00,93.1,23.2,29.84,West,266,11.9,20.3,8,0.00,,---,0.00,VWS V12.07,2013-06-06 01:45:00,
2013-06-05 18:50:00,92.8,22.9,29.84,SW,225,6.0,20.3,8,0.00,,---,0.00,VWS V12.07,2013-06-06 01:50:00,
2013-06-05 18:55:00,92.7,23.2,29.84,SW,236,3.3,20.3,8,0.00,,---,0.00,VWS V12.07,2013-06-06 01:55:00,
2013-06-05 19:00:00,92.2,23.4,29.84,South,172,0.0,20.3,8,0.00,,---,0.00,VWS V12.07,2013-06-06 02:00:00,
2013-06-05 19:05:00,91.9,23.7,29.84,SSE,156,3.1,20.3,8,0.00,,---,0.00,VWS V12.07,2013-06-06 02:05:00,
2013-06-05 19:10:00,91.4,23.9,29.84,SW,224,2.7,20.3,9,0.00,,---,0.00,VWS V12.07,2013-06-06 02:10:00,
2013-06-05 19:15:00,91.1,24.0,29.85,SSW,202,0.0,20.3,9,0.00,,---,0.00,VWS V12.07,2013-06-06 02:15:00,
2013-06-05 19:20:00,90.9,24.3,29.85,WSW,250,0.0,20.3,9,0.00,,---,0.00,VWS V12.07,2013-06-06 02:20:00,
2013-06-05 19:25:00,90.3,24.7,29.85,WSW,250,0.0,20.3,9,0.00,,---,0.00,VWS V12.07,2013-06-06 02:25:00,
2013-06-05 19:30:00,89.9,25.4,29.85,WSW,250,0.0,20.3,10,0.00,,---,0.00,VWS V12.07,2013-06-06 02:30:00,
2013-06-05 19:35:00,89.3,25.9,29.85,WSW,250,0.0,20.3,10,0.00,,---,0.00,VWS V12.07,2013-06-06 02:35:00,
2013-06-05 19:40:00,88.7,25.2,29.85,WSW,243,0.0,20.3,10,0.00,,---,0.00,VWS V12.07,2013-06-06 02:40:00,
2013-06-05 19:45:00,88.6,25.1,29.85,WSW,243,0.0,20.3,10,0.00,,---,0.00,VWS V12.07,2013-06-06 02:45:00,
2013-06-05 19:50:00,88.6,24.9,29.85,SSW,200,0.0,20.3,10,0.00,,---,0.00,VWS V12.07,2013-06-06 02:50:00,
2013-06-05 19:55:00,89.1,24.5,29.85,WSW,256,5.4,20.3,10,0.00,,---,0.00,VWS V12.07,2013-06-06 02:55:00,
2013-06-05 20:00:00,89.3,24.4,29.86,WSW,245,3.4,20.3,10,0.00,,---,0.00,VWS V12.07,2013-06-06 03:00:00,
2013-06-05 20:05:00,89.8,24.3,29.86,West,278,4.8,20.3,9,0.00,,---,0.00,VWS V12.07,2013-06-06 03:05:00,
2013-06-05 20:10:00,89.5,24.3,29.86,South,170,3.2,20.3,9,0.00,,---,0.00,VWS V12.07,2013-06-06 03:10:00,
2013-06-05 20:15:00,89.4,24.2,29.86,South,169,3.2,20.3,9,0.00,,---,0.00,VWS V12.07,2013-06-06 03:15:00,
2013-06-05 20:20:00,89.6,24.4,29.86,WNW,294,5.2,20.3,9,0.00,,---,0.00,VWS V12.07,2013-06-06 03:20:00,
2013-06-05 20:25:00,89.4,24.5,29.87,WNW,288,0.0,20.3,10,0.00,,---,0.00,VWS V12.07,2013-06-06 03:25:00,
2013-06-05 20:30:00,89.1,24.5,29.88,NW,325,0.0,20.3,10,0.00,,---,0.00,VWS V12.07,2013-06-06 03:30:00,
2013-06-05 20:36:00,88.7,25.4,29.88,NE,37,0.0,20.3,10,0.00,,---,0.00,VWS V12.07,2013-06-06 03:36:00,
2013-06-05 20:41:00,87.9,25.8,29.88,South,176,0.0,20.3,10,0.00,,---,0.00,VWS V12.07,2013-06-06 03:41:00,
2013-06-05 20:46:00,87.0,26.6,29.89,East,101,0.0,20.3,11,0.00,,---,0.00,VWS V12.07,2013-06-06 03:46:00,
2013-06-05 20:51:00,86.2,27.1,29.89,East,90,0.0,20.3,12,0.00,,---,0.00,VWS V12.07,2013-06-06 03:51:00,
2013-06-05 20:56:00,85.7,27.1,29.89,East,90,0.0,20.3,12,0.00,,---,0.00,VWS V12.07,2013-06-06 03:56:00,
2013-06-05 21:00:00,85.5,26.7,29.89,East,97,2.9,9.1,12,0.00,,---,0.00,VWS V12.07,2013-06-06 04:00:00,
2013-06-05 21:01:00,86.3,26.1,29.90,East,94,0.0,20.3,11,0.00,,---,0.00,VWS V12.07,2013-06-06 04:01:00,
2013-06-05 21:07:00,88.0,24.9,29.90,ESE,108,0.0,20.3,10,0.00,,---,0.00,VWS V12.07,2013-06-06 04:07:00,
2013-06-05 21:12:00,88.6,24.6,29.90,NW,326,0.0,20.3,10,0.00,,---,0.00,VWS V12.07,2013-06-06 04:12:00,
2013-06-05 21:17:00,88.6,25.1,29.90,NW,326,0.0,20.3,10,0.00,,---,0.00,VWS V12.07,2013-06-06 04:17:00,
2013-06-05 21:22:00,88.3,25.6,29.91,NW,326,0.0,20.3,10,0.00,,---,0.00,VWS V12.07,2013-06-06 04:22:00,
2013-06-05 21:27:00,87.7,25.6,29.91,NW,326,0.0,20.3,10,0.00,,---,0.00,VWS V12.07,2013-06-06 04:27:00,
2013-06-05 21:30:00,87.5,25.5,29.91,ESE,118,0.0,9.4,10,0.00,,---,0.00,VWS V12.07,2013-06-06 04:30:00,
2013-06-05 21:32:00,87.3,25.5,29.91,SSE,160,3.1,20.3,11,0.00,,---,0.00,VWS V12.07,2013-06-06 04:32:00,
2013-06-05 21:37:00,86.7,25.8,29.92,SSW,205,0.0,20.3,11,0.00,,---,0.00,VWS V12.07,2013-06-06 04:37:00,
2013-06-05 21:42:00,86.1,25.9,29.92,SSW,194,5.0,20.3,11,0.00,,---,0.00,VWS V12.07,2013-06-06 04:42:00,
2013-06-05 21:47:00,85.5,26.3,29.92,SSW,211,3.4,20.3,12,0.00,,---,0.00,VWS V12.07,2013-06-06 04:47:00,
2013-06-05 21:52:00,85.0,26.8,29.92,SSW,211,0.0,20.3,12,0.00,,---,0.00,VWS V12.07,2013-06-06 04:52:00,
2013-06-05 21:57:00,84.5,26.6,29.92,South,170,3.0,20.3,12,0.00,,---,0.00,VWS V12.07,2013-06-06 04:57:00,
2013-06-05 22:00:00,84.5,26.6,29.92,South,188,4.9,11.1,12,0.00,,---,0.00,VWS V12.07,2013-06-06 05:00:00,
2013-06-05 22:02:00,84.3,26.4,29.92,South,173,0.0,20.3,12,0.00,,---,0.00,VWS V12.07,2013-06-06 05:02:00,
2013-06-05 22:07:00,83.9,26.7,29.92,SSE,149,0.0,20.3,12,0.00,,---,0.00,VWS V12.07,2013-06-06 05:07:00,
2013-06-05 22:12:00,83.5,27.2,29.93,SSE,149,0.0,20.3,13,0.00,,---,0.00,VWS V12.07,2013-06-06 05:12:00,
2013-06-05 22:17:00,83.1,27.6,29.93,West,259,3.2,20.3,13,0.00,,---,0.00,VWS V12.07,2013-06-06 05:17:00,
2013-06-05 22:22:00,82.6,27.9,29.93,West,281,0.0,20.3,14,0.00,,---,0.00,VWS V12.07,2013-06-06 05:22:00,
2013-06-05 22:27:00,82.5,28.5,29.93,West,281,0.0,20.3,14,0.00,,---,0.00,VWS V12.07,2013-06-06 05:27:00,
2013-06-05 22:30:00,82.4,28.6,29.93,West,281,0.0,8.8,14,0.00,,---,0.00,VWS V12.07,2013-06-06 05:30:00,
2013-06-05 22:32:00,81.8,28.9,29.93,West,281,0.0,20.3,14,0.00,,---,0.00,VWS V12.07,2013-06-06 05:32:00,
2013-06-05 22:37:00,81.3,29.1,29.93,West,281,0.0,20.3,15,0.00,,---,0.00,VWS V12.07,2013-06-06 05:37:00,
2013-06-05 22:42:00,80.4,29.4,29.93,West,281,0.0,20.3,16,0.00,,---,0.00,VWS V12.07,2013-06-06 05:42:00,
2013-06-05 22:47:00,80.2,29.7,29.93,West,281,0.0,20.3,16,0.00,,---,0.00,VWS V12.07,2013-06-06 05:47:00,
2013-06-05 22:52:00,79.9,29.7,29.93,West,281,0.0,20.3,16,0.00,,---,0.00,VWS V12.07,2013-06-06 05:52:00,
2013-06-05 22:57:00,79.5,29.7,29.93,West,281,0.0,20.3,16,0.00,,---,0.00,VWS V12.07,2013-06-06 05:57:00,
2013-06-05 23:00:00,79.7,29.9,29.93,West,281,0.0,0.0,16,0.00,,---,0.00,VWS V12.07,2013-06-06 06:00:00,
2013-06-05 23:02:00,79.4,29.8,29.93,West,281,0.0,20.3,16,0.00,,---,0.00,VWS V12.07,2013-06-06 06:02:00,
2013-06-05 23:07:00,79.3,30.2,29.93,West,281,0.0,20.3,17,0.00,,---,0.00,VWS V12.07,2013-06-06 06:07:00,
2013-06-05 23:12:00,78.9,30.6,29.93,West,281,0.0,20.3,17,0.00,,---,0.00,VWS V12.07,2013-06-06 06:12:00,
2013-06-05 23:17:00,78.5,30.5,29.93,West,281,0.0,20.3,17,0.00,,---,0.00,VWS V12.07,2013-06-06 06:17:00,
2013-06-05 23:22:00,78.0,30.1,29.93,West,281,0.0,20.3,17,0.00,,---,0.00,VWS V12.07,2013-06-06 06:22:00,
2013-06-05 23:27:00,77.9,30.2,29.93,West,281,0.0,20.3,17,0.00,,---,0.00,VWS V12.07,2013-06-06 06:27:00,
2013-06-05 23:30:00,77.8,30.1,29.93,West,281,0.0,0.0,17,0.00,,---,0.00,VWS V12.07,2013-06-06 06:30:00,
2013-06-05 23:32:00,77.7,30.2,29.93,West,281,0.0,20.3,18,0.00,,---,0.00,VWS V12.07,2013-06-06 06:32:00,
2013-06-05 23:37:00,77.4,30.3,29.93,West,281,0.0,20.3,18,0.00,,---,0.00,VWS V12.07,2013-06-06 06:37:00,
2013-06-05 23:42:00,76.9,30.2,29.93,West,281,0.0,20.3,18,0.00,,---,0.00,VWS V12.07,2013-06-06 06:42:00,
2013-06-05 23:47:00,76.5,30.4,29.93,West,281,0.0,20.3,18,0.00,,---,0.00,VWS V12.07,2013-06-06 06:47:00,
2013-06-05 23:52:00,76.3,30.3,29.92,West,281,0.0,20.3,18,0.00,,---,0.00,VWS V12.07,2013-06-06 06:52:00,
2013-06-05 23:57:00,76.3,30.1,29.92,NW,307,0.0,20.3,18,0.00,,---,0.00,VWS V12.07,2013-06-06 06:57:00,